Location: Bern�tre
(50.1974°N, 2.0915°E)
Time: 04:15:54
(UTC+00:00)

ATLAS 3B R/B - Pass Details

Date: 18 September 2020
Orbit: 1016 x 1179 km, 63.8° (Epoch: 28 October)

Event Time Altitude Azimuth Distance (km) Brightness Sun altitude
Rises 19:29:29 0° 311° (NW) 3,797 7.0 -15.1°
Reaches altitude 10° 19:32:20 10° 320° (NW) 2,860 5.9 -15.6°
Maximum altitude 19:38:31 36° 26° (NNE) 1,625 3.6 -16.5°
Enters shadow 19:42:49 19° 81° (E) 2,336 4.0 -17.1°
